TimeEST,TemperatureF,Dew PointF,Humidity,Sea Level PressureIn,VisibilityMPH,Wind Direction,Wind SpeedMPH,Gust SpeedMPH,PrecipitationIn,Events,Conditions,WindDirDegrees,DateUTC
12:14 AM,30.2,22.1,72,29.98,10.0,SW,10.4,-,N/A,,Overcast,230,2012-11-25 05:14:00
12:34 AM,29.8,21.2,70,29.97,10.0,SW,12.7,18.4,N/A,,Overcast,220,2012-11-25 05:34:00
12:54 AM,29.7,20.3,68,29.96,10.0,SSW,6.9,-,N/A,,Overcast,200,2012-11-25 05:54:00
1:14 AM,29.5,20.3,69,29.97,10.0,SW,12.7,-,N/A,,Overcast,220,2012-11-25 06:14:00
1:34 AM,29.3,19.9,68,29.95,10.0,SW,11.5,17.3,N/A,,Overcast,220,2012-11-25 06:34:00
1:54 AM,29.3,20.3,69,29.95,10.0,SW,11.5,-,N/A,,Overcast,220,2012-11-25 06:54:00
2:14 AM,29.1,21.6,73,29.95,4.0,SW,12.7,-,N/A,Snow,Light Snow,230,2012-11-25 07:14:00
2:34 AM,27.3,24.3,88,29.95,1.2,SW,9.2,-,N/A,Snow,Light Snow,220,2012-11-25 07:34:00
2:54 AM,27.5,24.3,88,29.94,10.0,SSW,9.2,-,N/A,,Overcast,200,2012-11-25 07:54:00
3:14 AM,27.9,23.5,84,29.94,10.0,SSW,11.5,-,N/A,,Overcast,210,2012-11-25 08:14:00
3:34 AM,28.4,22.1,77,29.92,10.0,SSW,12.7,-,N/A,,Overcast,210,2012-11-25 08:34:00
3:54 AM,28.6,21.6,75,29.91,10.0,SSW,13.8,18.4,N/A,,Overcast,210,2012-11-25 08:54:00
4:14 AM,28.4,21.6,76,29.89,10.0,South,10.4,-,N/A,,Overcast,190,2012-11-25 09:14:00
4:34 AM,28.4,21.7,76,29.88,10.0,South,9.2,-,N/A,,Overcast,190,2012-11-25 09:34:00
4:54 AM,28.4,21.7,76,29.87,10.0,South,9.2,-,N/A,,Overcast,190,2012-11-25 09:54:00
5:14 AM,28.4,21.7,76,29.87,10.0,SSW,11.5,-,N/A,,Overcast,200,2012-11-25 10:14:00
5:34 AM,28.2,22.5,79,29.86,7.0,South,10.4,-,N/A,Snow,Light Snow,180,2012-11-25 10:34:00
5:54 AM,27.9,22.8,81,29.86,10.0,SSW,6.9,-,N/A,,Overcast,200,2012-11-25 10:54:00
6:14 AM,28.0,22.8,81,29.85,10.0,South,5.8,-,N/A,,Overcast,190,2012-11-25 11:14:00
6:34 AM,28.4,22.6,79,29.84,10.0,South,9.2,-,N/A,,Overcast,190,2012-11-25 11:34:00
6:54 AM,28.4,23.2,81,29.83,7.0,South,9.2,-,N/A,Snow,Light Snow,190,2012-11-25 11:54:00
7:14 AM,28.4,23.0,80,29.84,10.0,South,9.2,-,N/A,,Overcast,190,2012-11-25 12:14:00
7:34 AM,28.4,23.0,80,29.83,10.0,South,9.2,-,N/A,,Overcast,190,2012-11-25 12:34:00
7:54 AM,28.8,23.4,80,29.83,10.0,SSW,10.4,-,N/A,,Overcast,200,2012-11-25 12:54:00
8:14 AM,28.9,23.7,81,29.83,7.0,SSW,10.4,16.1,N/A,,Overcast,200,2012-11-25 13:14:00
8:34 AM,28.9,23.9,81,29.82,7.0,SSW,12.7,17.3,N/A,,Overcast,200,2012-11-25 13:34:00
8:54 AM,29.3,24.1,81,29.82,10.0,SSW,11.5,16.1,N/A,,Overcast,200,2012-11-25 13:54:00
9:14 AM,29.7,23.7,79,29.82,10.0,SSW,10.4,-,N/A,,Overcast,210,2012-11-25 14:14:00
9:34 AM,30.0,23.7,77,29.82,7.0,SSW,11.5,-,N/A,,Overcast,210,2012-11-25 14:34:00
9:54 AM,30.6,23.9,76,29.82,10.0,SW,9.2,-,N/A,,Overcast,230,2012-11-25 14:54:00
10:14 AM,30.9,24.4,77,29.82,10.0,SW,9.2,-,N/A,,Overcast,220,2012-11-25 15:14:00
10:34 AM,31.1,24.4,76,29.82,7.0,SW,10.4,17.3,N/A,,Overcast,230,2012-11-25 15:34:00
10:54 AM,32.0,25.0,75,29.82,10.0,SW,8.1,-,N/A,,Overcast,230,2012-11-25 15:54:00
11:14 AM,32.0,25.2,76,29.82,7.0,SW,10.4,-,N/A,,Overcast,230,2012-11-25 16:14:00
11:34 AM,32.4,26.1,78,29.82,10.0,WSW,9.2,-,N/A,,Overcast,240,2012-11-25 16:34:00
11:54 AM,32.5,25.9,76,29.82,10.0,SW,10.4,-,N/A,,Overcast,230,2012-11-25 16:54:00
12:14 PM,32.7,25.9,76,29.81,10.0,SW,8.1,-,N/A,,Overcast,220,2012-11-25 17:14:00
12:34 PM,33.1,26.6,77,29.81,10.0,SW,8.1,-,N/A,,Overcast,230,2012-11-25 17:34:00
12:54 PM,33.3,26.8,77,29.81,10.0,WSW,6.9,-,N/A,,Overcast,240,2012-11-25 17:54:00
1:14 PM,33.8,26.8,75,29.81,10.0,SW,8.1,-,N/A,,Overcast,230,2012-11-25 18:14:00
1:34 PM,33.8,27.0,76,29.81,7.0,WSW,6.9,-,N/A,,Overcast,240,2012-11-25 18:34:00
1:54 PM,34.2,27.5,77,29.82,10.0,WSW,6.9,-,N/A,,Overcast,240,2012-11-25 18:54:00
2:14 PM,35.1,28.0,76,29.82,10.0,WSW,10.4,-,N/A,,Overcast,240,2012-11-25 19:14:00
2:34 PM,34.7,27.3,74,29.82,10.0,WSW,8.1,-,N/A,,Overcast,240,2012-11-25 19:34:00
2:54 PM,34.7,27.9,76,29.82,10.0,WSW,6.9,-,N/A,,Overcast,250,2012-11-25 19:54:00
3:14 PM,35.1,28.0,76,29.82,10.0,WSW,8.1,-,N/A,,Overcast,240,2012-11-25 20:14:00
3:34 PM,35.1,28.2,76,29.82,10.0,WSW,8.1,-,N/A,,Overcast,240,2012-11-25 20:34:00
3:54 PM,35.2,28.4,76,29.83,10.0,WSW,8.1,-,N/A,,Overcast,240,2012-11-25 20:54:00
4:14 PM,35.6,28.8,76,29.83,10.0,WSW,6.9,-,N/A,,Overcast,240,2012-11-25 21:14:00
4:34 PM,35.6,28.8,76,29.84,10.0,WSW,6.9,-,N/A,,Overcast,250,2012-11-25 21:34:00
4:54 PM,36.1,27.5,71,29.84,10.0,West,10.4,-,N/A,,Overcast,280,2012-11-25 21:54:00
5:14 PM,36.0,24.3,63,29.86,10.0,WNW,15.0,23.0,N/A,,Overcast,300,2012-11-25 22:14:00
5:34 PM,36.0,24.6,63,29.87,10.0,WNW,12.7,23.0,N/A,,Overcast,290,2012-11-25 22:34:00
5:54 PM,35.8,25.2,65,29.87,10.0,WNW,13.8,-,N/A,,Overcast,300,2012-11-25 22:54:00
6:14 PM,35.6,25.3,66,29.88,10.0,West,10.4,-,N/A,,Overcast,280,2012-11-25 23:14:00
6:34 PM,35.1,25.7,69,29.89,10.0,WNW,9.2,-,N/A,,Overcast,290,2012-11-25 23:34:00
6:54 PM,34.7,25.7,70,29.90,10.0,West,8.1,-,N/A,,Overcast,280,2012-11-25 23:54:00
7:14 PM,34.2,26.1,72,29.90,10.0,WNW,5.8,-,N/A,,Overcast,300,2012-11-26 00:14:00
7:34 PM,32.7,25.7,75,29.91,10.0,WNW,6.9,-,N/A,,Mostly Cloudy,290,2012-11-26 00:34:00
7:54 PM,33.3,25.7,74,29.92,10.0,NW,6.9,-,N/A,,Overcast,310,2012-11-26 00:54:00
8:14 PM,32.4,25.3,75,29.93,10.0,WNW,5.8,-,N/A,,Mostly Cloudy,300,2012-11-26 01:14:00
8:34 PM,31.8,24.8,75,29.93,10.0,WNW,4.6,-,N/A,,Scattered Clouds,300,2012-11-26 01:34:00
8:54 PM,31.1,24.1,75,29.93,10.0,NW,4.6,-,N/A,,Clear,310,2012-11-26 01:54:00
9:14 PM,30.4,24.1,77,29.94,10.0,NW,5.8,-,N/A,,Clear,310,2012-11-26 02:14:00
9:34 PM,30.6,23.7,76,29.94,10.0,WNW,4.6,-,N/A,,Clear,300,2012-11-26 02:34:00
9:54 PM,30.0,23.7,77,29.96,10.0,West,5.8,-,N/A,,Clear,270,2012-11-26 02:54:00
10:14 PM,30.7,23.7,75,29.96,10.0,West,5.8,-,N/A,,Clear,270,2012-11-26 03:14:00
10:34 PM,30.0,23.9,78,29.96,10.0,West,4.6,-,N/A,,Mostly Cloudy,270,2012-11-26 03:34:00
10:54 PM,30.2,23.5,76,29.96,10.0,West,4.6,-,N/A,,Overcast,280,2012-11-26 03:54:00
11:14 PM,30.0,23.7,77,29.97,10.0,WSW,4.6,-,N/A,,Overcast,240,2012-11-26 04:14:00
11:34 PM,30.6,25.0,80,29.97,10.0,SW,5.8,-,N/A,,Overcast,220,2012-11-26 04:34:00
11:54 PM,30.9,25.3,80,29.97,10.0,SW,5.8,-,N/A,,Overcast,220,2012-11-26 04:54:00